Location: Killam
(52.7910°N, 111.8608°W)
Time: 02:10:00
(UTC+00:00)

Oscar 11 - Pass Details

Date: 20 March 2026
Orbit: 590 x 602 km, 97.8° (Epoch: 13 April)

Event Time Altitude Azimuth Distance (km) Brightness Sun altitude
Rises 10:25:42 0° 21° (NNE) 2,839 11.4 -26.4°
Reaches altitude 10° 10:28:05 10° 32° (NNE) 1,932 10.5 -26.2°
Maximum altitude 10:31:50 31° 95° (E) 1,048 8.6 -25.7°
Enters shadow 10:33:11 25° 130° (SE) 1,199 8.6 -25.6°
